Flag for Poland Weather past 2 weeks in Kalisz, Poland

Now
63 °F

Overcast.


Feels Like: 63 °F
Forecast: 58 / 69 °F
Wind: 2 mph from Southeast

Location: Kalisz

Current Time: Sep 18, 2014 at 10:30:32 PM

Latest Report: Sep 18, 2014 at 9:00 PM


Visibility: 6 mi

Pressure: 30.08 "Hg

Humidity: 71%

Dew point: 53 °F

Location of KaliszLocation

Historic Weather in Kalisz — Graph

°F

Kalisz temperature yesterday

Maximum temperature yesterday: 71 °F (at 4:00 PM)
Minimum temperature yesterday: 51 °F (at 7:00 AM)
Average temperature yesterday: 60 °F

Past Weeks' High & Low Weather Summary

 TemperatureHumidityPressure
High78 °F (Sep 7, 3:00 PM)100% (Sep 9, 5:00 AM)30.27 "Hg (Sep 9, 5:00 AM)
Low49 °F (Sep 18, 7:00 AM)38% (Sep 7, 3:00 PM)29.92 "Hg (Sep 6, 6:00 PM)
Average63 °F77%30.06 "Hg
* Reported Sep 3 9:00 PM — Sep 18 9:00 PM, Kalisz, Weather by CustomWeather, © 2014

Note: Actual official high and low records may vary slightly from our data, if they occured in-between our weather recording intervals... More about our weather records

Advertising

Kalisz weather history for previous 24 hours

 ConditionsComfort  
Time TempWeatherWind HumidityBarometerVisibility
9:00 PM
Sep 18
63 °FOvercast.2 mph71%30.08 "Hg6 mi
8:00 PM65 °FOvercast.2 mph66%30.08 "Hg6 mi
5:00 PM72 °FScattered clouds.5 mph50%30.06 "Hg15 mi
4:00 PM73 °FScattered clouds.6 mph49%30.06 "Hg14 mi
3:00 PM74 °FScattered clouds.5 mph53%30.07 "Hg14 mi
2:00 PM72 °FPassing clouds.5 mph54%30.08 "Hg15 mi
1:00 PM70 °FPassing clouds.5 mph60%30.09 "Hg11 mi
12:00 PMN/APassing clouds.N/AN/AN/A2 mi
11:00 AM63 °FPassing clouds.3 mph75%30.11 "Hg7 mi
10:00 AM58 °FSunny.3 mph80%30.11 "Hg6 mi
9:00 AM54 °FFog.3 mph85%30.12 "Hg6 mi
8:00 AM51 °FFog.3 mph89%30.12 "Hg4 mi
7:00 AM49 °FFog.2 mph92%30.12 "Hg4 mi
6:00 AM50 °FFog.5 mph90%30.11 "Hg4 mi
5:00 AM50 °FFog.2 mph91%30.12 "Hg4 mi
4:00 AM52 °FClear.3 mph88%30.12 "Hg6 mi
3:00 AM53 °FClear.2 mph86%30.12 "Hg6 mi
2:00 AM54 °FClear.2 mph85%30.13 "Hg6 mi
1:00 AM55 °FClear.3 mph83%30.13 "Hg6 mi
12:00 AM56 °FClear.3 mph81%30.13 "Hg7 mi
11:00 PM
Sep 17
58 °FClear.3 mph77%30.14 "Hg9 mi
10:00 PM60 °FClear.5 mph72%30.13 "Hg9 mi
Weather by CustomWeather, © 2014

See weather overviewHow to use our weather pages